Location: Arrien
(43.3167°N, 0.1500°W)
Time: 22:38:38
(UTC+00:00)

MOS 1-B Rocket - Pass Details

Date: 15 October 2021
Orbit: 890 x 1605 km, 99.0° (Epoch: 04 December)

Event Time Altitude Azimuth Distance (km) Brightness Sun altitude
Rises 17:51:38 0° 17° (NNE) 4,226 7.1 -7.0°
Reaches altitude 10° 17:54:35 10° 22° (NNE) 3,148 6.4 -7.5°
Maximum altitude 18:01:27 52° 98° (E) 1,314 4.3 -8.8°
Drops below altitude 10° 18:07:20 10° 174° (S) 2,711 6.3 -9.8°
Sets 18:09:42 0° 179° (S) 3,595 7.0 -10.3°
